Date String (YYYY-MM-DD hh:mm:ss) UTC,Instrument flags,Ambient pressure (hPa),Sample flow (lpm),Bypass flow (lpm),Sample temperature (°C),Ambient temperature (°C),ASC tube jacket temperature (°C),LED temperature (°C),Box temperature (°C),Sample RH (%),Span deviation,Mass concentration (μg/m³),Mass concentration (μg/m³),Mass concentration (μg/m³)
DateTimeUTC,F1_M11,P_M11,Q1_M11,Q2_M11,T1_M11,T2_M11,T3_M11,T4_M11,T5_M11,U1_M11,ZSPAN_M11,X2_M11,X0_M11,X1_M11
2021-11-03 00:00:00,,0830.5,4.99,0.00,24.9,24.1,00.0,33.9,26.8,22.2,-001.5,0012.31,0016.89,0011.67
2021-11-03 00:01:00,,0830.5,5.00,0.00,24.9,24.1,00.0,33.9,26.8,22.2,-001.8,0012.29,0017.05,0011.65
2021-11-03 00:02:00,,0830.5,5.01,0.00,24.9,24.2,00.0,33.9,26.8,22.2,-001.8,0012.32,0017.16,0011.66
2021-11-03 00:03:00,,0830.6,5.00,0.00,24.9,24.2,00.0,33.9,26.8,22.3,-001.7,0012.31,0017.24,0011.68
2021-11-03 00:04:00,,0830.6,4.99,0.00,24.9,24.2,00.0,33.9,26.8,22.2,-001.6,0012.28,0017.74,0011.66
2021-11-03 00:05:00,,0830.6,5.02,0.00,24.9,24.2,00.0,33.9,26.8,22.2,-001.6,0012.27,0017.80,0011.66
2021-11-03 00:06:00,,0830.6,5.00,0.00,24.9,24.2,00.0,33.9,26.8,22.3,-001.4,0012.28,0017.83,0011.70
2021-11-03 00:07:00,,0830.6,4.99,0.00,24.9,24.2,00.0,33.9,26.8,22.3,-001.5,0012.27,0017.19,0011.70
2021-11-03 00:08:00,,0830.6,4.99,0.00,24.9,24.2,00.0,33.9,26.8,22.3,-001.5,0012.30,0017.80,0011.71
2021-11-03 00:09:00,,0830.6,5.01,0.00,24.9,24.2,00.0,33.9,26.8,22.3,-001.5,0012.34,0018.29,0011.72
2021-11-03 00:10:00,,0830.7,4.99,0.00,24.9,24.2,00.0,33.9,26.8,22.3,-001.5,0012.35,0018.09,0011.73
2021-11-03 00:11:00,,0830.7,5.02,0.00,24.9,24.1,00.0,33.9,26.8,22.5,-001.3,0012.32,0017.57,0011.72
2021-11-03 00:12:00,,0830.8,4.99,0.00,24.9,24.1,00.0,33.9,26.8,23.8,-001.1,0012.36,0017.43,0011.74
2021-11-03 00:13:00,,0830.8,4.99,0.00,24.9,24.1,00.0,33.9,26.8,23.2,-001.4,0012.37,0017.77,0011.76
2021-11-03 00:14:00,,0830.8,5.01,0.00,24.9,24.1,00.0,33.9,26.8,22.7,-001.7,0012.34,0018.36,0011.76
2021-11-03 00:15:00,,0830.8,5.01,0.00,24.9,24.1,00.0,33.9,26.8,22.5,-001.9,0012.36,0017.87,0011.78
2021-11-03 00:16:00,,0830.8,5.00,0.00,24.9,24.1,00.0,33.9,26.8,22.4,-001.8,0012.41,0018.50,0011.82
2021-11-03 00:17:00,,0830.9,5.00,0.00,24.9,24.1,00.0,33.9,26.8,22.5,-001.8,0012.40,0018.72,0011.82
2021-11-03 00:18:00,,0831.0,5.01,0.00,25.0,24.1,00.0,33.9,26.8,22.5,-001.7,0012.40,0018.74,0011.84
2021-11-03 00:19:00,,0830.9,4.99,0.00,25.0,24.2,00.0,33.9,26.8,22.6,-001.8,0012.41,0018.45,0011.86
2021-11-03 00:20:00,,0830.9,5.01,0.00,24.9,24.2,00.0,33.9,26.8,22.6,-001.7,0012.42,0017.91,0011.89
2021-11-03 00:21:00,,0830.9,5.00,0.00,24.9,24.2,00.0,33.9,26.8,22.7,-001.9,0012.43,0017.88,0011.91
2021-11-03 00:22:00,,0830.9,4.99,0.00,24.9,24.2,00.0,33.9,26.8,22.7,-001.9,0012.49,0017.93,0011.95
2021-11-03 00:23:00,,0830.9,5.00,0.00,25.0,24.2,00.0,34.0,26.8,22.8,-001.9,0012.51,0018.02,0011.96
2021-11-03 00:24:00,,0830.9,5.01,0.00,25.0,24.2,00.0,34.0,26.8,22.8,-001.8,0012.54,0017.63,0011.99
2021-11-03 00:25:00,,0830.9,4.99,0.00,25.0,24.2,00.0,34.0,26.8,22.8,-001.9,0012.59,0016.97,0012.05
2021-11-03 00:26:00,,0830.9,5.01,0.00,25.0,24.2,00.0,34.0,26.8,22.8,-002.0,0012.67,0017.12,0012.10
2021-11-03 00:27:00,,0830.9,4.99,0.00,25.0,24.2,00.0,34.0,26.8,22.9,-002.0,0012.71,0016.79,0012.14
2021-11-03 00:28:00,,0830.9,5.01,0.00,25.0,24.2,00.0,34.0,26.8,22.9,-002.1,0012.81,0016.64,0012.15
2021-11-03 00:29:00,,0830.9,5.01,0.00,25.0,24.2,00.0,34.0,26.8,22.9,-002.0,0012.90,0016.77,0012.19
2021-11-03 00:30:00,,0830.9,5.00,0.00,25.0,24.2,00.0,34.0,26.8,22.9,-002.0,0012.96,0016.70,0012.22
2021-11-03 00:31:00,,0830.9,5.00,0.00,25.0,24.2,00.0,34.0,26.8,22.8,-002.1,0012.96,0016.33,0012.25
2021-11-03 00:32:00,,0830.9,4.99,0.00,25.0,24.2,00.0,34.0,26.8,22.8,-002.0,0012.98,0016.39,0012.24
2021-11-03 00:33:00,,0830.9,5.01,0.00,25.0,24.2,00.0,34.0,26.8,22.8,-002.0,0013.01,0016.45,0012.25
2021-11-03 00:34:00,,0830.9,4.99,0.00,25.0,24.2,00.0,34.0,26.8,22.7,-002.0,0013.01,0016.38,0012.27
2021-11-03 00:35:00,,0830.9,5.01,0.00,25.0,24.2,00.0,34.0,26.9,22.7,-002.0,0013.00,0016.36,0012.28
2021-11-03 00:36:00,,0830.9,5.00,0.00,25.0,24.2,00.0,34.0,26.9,22.7,-001.7,0013.02,0016.42,0012.29
2021-11-03 00:37:00,,0830.9,5.00,0.00,25.0,24.2,00.0,34.0,26.8,22.7,-001.6,0013.00,0016.50,0012.28
2021-11-03 00:38:00,,0831.0,5.00,0.00,25.0,24.2,00.0,34.0,26.9,22.8,-001.6,0012.98,0016.49,0012.25
2021-11-03 00:39:00,,0830.9,5.00,0.00,25.0,24.2,00.0,34.0,26.9,22.8,-001.9,0012.97,0016.42,0012.26
2021-11-03 00:40:00,,0830.9,5.00,0.00,25.0,24.3,00.0,34.0,26.9,22.8,-002.1,0012.99,0016.46,0012.28
2021-11-03 00:41:00,,0830.9,5.01,0.00,25.0,24.2,00.0,34.0,26.9,22.8,-002.1,0012.97,0016.33,0012.29
2021-11-03 00:42:00,,0830.8,5.01,0.00,25.0,24.3,00.0,34.0,26.9,22.8,-002.1,0013.03,0016.53,0012.30
2021-11-03 00:43:00,,0830.8,4.99,0.00,25.0,24.3,00.0,34.0,26.9,22.8,-002.2,0013.06,0016.56,0012.34
2021-11-03 00:44:00,,0830.9,5.01,0.00,25.0,24.3,00.0,34.0,26.9,22.7,-002.3,0013.14,0016.84,0012.40
2021-11-03 00:45:00,,0830.8,5.01,0.00,25.1,24.3,00.0,34.0,26.9,22.7,-002.3,0013.20,0017.42,0012.43
2021-11-03 00:46:00,,0830.8,4.99,0.00,25.1,24.3,00.0,34.0,26.9,22.8,-002.3,0013.21,0017.40,0012.46
2021-11-03 00:47:00,,0830.9,5.00,0.00,25.1,24.3,00.0,34.0,26.9,22.8,-002.3,0013.25,0017.54,0012.47
2021-11-03 00:48:00,,0830.8,5.00,0.00,25.1,24.3,00.0,34.0,26.9,22.8,-002.3,0013.28,0018.28,0012.48
2021-11-03 00:49:00,,0830.9,5.00,0.00,25.1,24.3,00.0,34.0,26.9,22.8,-002.2,0013.31,0018.48,0012.49
2021-11-03 00:50:00,,0830.9,5.00,0.00,25.1,24.3,00.0,34.1,26.9,22.8,-001.9,0013.28,0018.42,0012.49
2021-11-03 00:51:00,,0831.0,5.00,0.00,25.1,24.3,00.0,34.1,26.9,22.8,-001.7,0013.22,0018.25,0012.47
2021-11-03 00:52:00,,0830.9,5.01,0.00,25.1,24.3,00.0,34.1,26.9,22.8,-001.6,0013.20,0018.20,0012.47
2021-11-03 00:53:00,,0830.9,4.99,0.00,25.1,24.3,00.0,34.1,27.0,22.8,-001.4,0013.17,0017.98,0012.49
2021-11-03 00:54:00,,0830.9,5.00,0.00,25.1,24.3,00.0,34.1,27.0,22.8,-001.3,0013.15,0017.92,0012.48
2021-11-03 00:55:00,,0831.0,5.00,0.00,25.1,24.3,00.0,34.1,27.0,22.8,-001.1,0013.07,0017.61,0012.42
2021-11-03 00:56:00,,0830.9,5.01,0.00,25.1,24.3,00.0,34.1,27.0,22.8,-001.0,0012.98,0016.97,0012.35
2021-11-03 00:57:00,,0830.9,5.00,0.00,25.1,24.3,00.0,34.1,27.0,22.8,-000.9,0012.92,0016.96,0012.32
2021-11-03 00:58:00,,0830.9,4.99,0.00,25.1,24.3,00.0,34.1,27.0,22.8,-001.0,0012.88,0017.33,0012.29
2021-11-03 00:59:00,,0830.9,5.02,0.00,25.1,24.3,00.0,34.1,27.0,22.8,-000.9,0012.83,0016.47,0012.24
